owner,sensor,date,latitude,longitude,vertical_datum,sea_water_practical_salinity,qcFlag 
DISL,ioos:station:DISL:KATA:1,2017-06-01T00:00:00Z,30.2583,-88.2131,4.105,21.83,1111122 
DISL,ioos:station:DISL:KATA:1,2017-06-01T00:30:00Z,30.2583,-88.2131,4.078,21.88,1111122 
DISL,ioos:station:DISL:KATA:1,2017-06-01T01:00:00Z,30.2583,-88.2131,4.046,21.79,1111122 
DISL,ioos:station:DISL:KATA:1,2017-06-01T01:30:00Z,30.2583,-88.2131,3.975,21.77,1111122 
DISL,ioos:station:DISL:KATA:1,2017-06-01T02:00:00Z,30.2583,-88.2131,3.942,21.91,1111122 
DISL,ioos:station:DISL:KATA:1,2017-06-01T02:30:00Z,30.2583,-88.2131,3.895,21.42,1111122 
DISL,ioos:station:DISL:KATA:1,2017-06-01T03:00:00Z,30.2583,-88.2131,3.875,21.23,1111122 
DISL,ioos:station:DISL:KATA:1,2017-06-01T03:30:00Z,30.2583,-88.2131,3.854,21.59,1111122 
DISL,ioos:station:DISL:KATA:1,2017-06-01T04:00:00Z,30.2583,-88.2131,3.853,21.73,1111122 
DISL,ioos:station:DISL:KATA:1,2017-06-01T04:30:00Z,30.2583,-88.2131,3.85,21.48,1111122 
DISL,ioos:station:DISL:KATA:1,2017-06-01T05:00:00Z,30.2583,-88.2131,3.867,21.42,1111122 
DISL,ioos:station:DISL:KATA:1,2017-06-01T05:30:00Z,30.2583,-88.2131,3.899,21.56,1111122 
DISL,ioos:station:DISL:KATA:1,2017-06-01T06:00:00Z,30.2583,-88.2131,3.928,21.43,1111122 
DISL,ioos:station:DISL:KATA:1,2017-06-01T06:30:00Z,30.2583,-88.2131,3.945,22.11,1111122 
DISL,ioos:station:DISL:KATA:1,2017-06-01T07:00:00Z,30.2583,-88.2131,3.956,21.66,1111122 
DISL,ioos:station:DISL:KATA:1,2017-06-01T07:30:00Z,30.2583,-88.2131,3.913,21.58,1111122 
DISL,ioos:station:DISL:KATA:1,2017-06-01T08:00:00Z,30.2583,-88.2131,3.876,21.84,1111122 
DISL,ioos:station:DISL:KATA:1,2017-06-01T08:30:00Z,30.2583,-88.2131,3.852,22.11,1111122 
DISL,ioos:station:DISL:KATA:1,2017-06-01T09:00:00Z,30.2583,-88.2131,3.839,22.22,1111122 
DISL,ioos:station:DISL:KATA:1,2017-06-01T09:30:00Z,30.2583,-88.2131,3.84,22.72,1111122 
DISL,ioos:station:DISL:KATA:1,2017-06-01T10:00:00Z,30.2583,-88.2131,3.853,22.92,1111122 
DISL,ioos:station:DISL:KATA:1,2017-06-01T10:30:00Z,30.2583,-88.2131,3.894,22.98,1111122 
DISL,ioos:station:DISL:KATA:1,2017-06-01T11:00:00Z,30.2583,-88.2131,3.911,23.03,1111122 
DISL,ioos:station:DISL:KATA:1,2017-06-01T11:30:00Z,30.2583,-88.2131,3.952,22.8,1111122 
DISL,ioos:station:DISL:KATA:1,2017-06-01T12:00:00Z,30.2583,-88.2131,3.976,22.81,1111122 
DISL,ioos:station:DISL:KATA:1,2017-06-01T12:30:00Z,30.2583,-88.2131,4.006,22.84,1111122 
DISL,ioos:station:DISL:KATA:1,2017-06-01T13:00:00Z,30.2583,-88.2131,4.022,22.87,1111122 
DISL,ioos:station:DISL:KATA:1,2017-06-01T13:30:00Z,30.2583,-88.2131,4.034,22.89,1111122 
DISL,ioos:station:DISL:KATA:1,2017-06-01T14:00:00Z,30.2583,-88.2131,4.056,22.89,1111122 
DISL,ioos:station:DISL:KATA:1,2017-06-01T14:30:00Z,30.2583,-88.2131,4.071,22.55,1111122 
DISL,ioos:station:DISL:KATA:1,2017-06-01T15:00:00Z,30.2583,-88.2131,4.075,22.45,1111122 
DISL,ioos:station:DISL:KATA:1,2017-06-01T15:30:00Z,30.2583,-88.2131,4.067,22.21,1111122 
DISL,ioos:station:DISL:KATA:1,2017-06-01T16:00:00Z,30.2583,-88.2131,4.102,22.54,1111122 
DISL,ioos:station:DISL:KATA:1,2017-06-01T16:30:00Z,30.2583,-88.2131,4.102,22.51,1111122 
DISL,ioos:station:DISL:KATA:1,2017-06-01T17:00:00Z,30.2583,-88.2131,4.102,22.59,1111122 
DISL,ioos:station:DISL:KATA:1,2017-06-01T17:30:00Z,30.2583,-88.2131,4.129,21.97,1111122 
DISL,ioos:station:DISL:KATA:1,2017-06-01T18:00:00Z,30.2583,-88.2131,4.116,22.58,1111122 
DISL,ioos:station:DISL:KATA:1,2017-06-01T18:30:00Z,30.2583,-88.2131,4.107,22.35,1111122 
DISL,ioos:station:DISL:KATA:1,2017-06-01T19:00:00Z,30.2583,-88.2131,4.091,22.35,1111122 
DISL,ioos:station:DISL:KATA:1,2017-06-01T19:30:00Z,30.2583,-88.2131,4.092,22.39,1111122 
DISL,ioos:station:DISL:KATA:1,2017-06-01T20:00:00Z,30.2583,-88.2131,4.09,22.18,1111122 
DISL,ioos:station:DISL:KATA:1,2017-06-01T20:30:00Z,30.2583,-88.2131,4.091,22.45,1111122 
DISL,ioos:station:DISL:KATA:1,2017-06-01T21:00:00Z,30.2583,-88.2131,4.105,22.56,1111122 
DISL,ioos:station:DISL:KATA:1,2017-06-01T21:30:00Z,30.2583,-88.2131,4.095,22.4,1111122 
DISL,ioos:station:DISL:KATA:1,2017-06-01T22:00:00Z,30.2583,-88.2131,4.091,22.56,1111122 
DISL,ioos:station:DISL:KATA:1,2017-06-01T22:30:00Z,30.2583,-88.2131,4.072,22.45,1111122 
DISL,ioos:station:DISL:KATA:1,2017-06-01T23:00:00Z,30.2583,-88.2131,4.064,22.54,1111122 
DISL,ioos:station:DISL:KATA:1,2017-06-01T23:30:00Z,30.2583,-88.2131,4.071,22.57,1111122 
DISL,ioos:station:DISL:KATA:1,2017-06-02T00:00:00Z,30.2583,-88.2131,4.062,22.58,1111122 
DISL,ioos:station:DISL:KATA:1,2017-06-02T00:30:00Z,30.2583,-88.2131,4.063,22.61,1111122 
DISL,ioos:station:DISL:KATA:1,2017-06-02T01:00:00Z,30.2583,-88.2131,4.048,22.53,1111122 
DISL,ioos:station:DISL:KATA:1,2017-06-02T01:30:00Z,30.2583,-88.2131,4.032,22.51,1111122 
DISL,ioos:station:DISL:KATA:1,2017-06-02T02:00:00Z,30.2583,-88.2131,4.014,22.54,1111122 
DISL,ioos:station:DISL:KATA:1,2017-06-02T02:30:00Z,30.2583,-88.2131,3.991,22.48,1111122 
DISL,ioos:station:DISL:KATA:1,2017-06-02T03:00:00Z,30.2583,-88.2131,3.968,22.47,1111122 
DISL,ioos:station:DISL:KATA:1,2017-06-02T03:30:00Z,30.2583,-88.2131,3.968,22.62,1111122 
DISL,ioos:station:DISL:KATA:1,2017-06-02T04:00:00Z,30.2583,-88.2131,3.953,22.37,1111122 
DISL,ioos:station:DISL:KATA:1,2017-06-02T04:30:00Z,30.2583,-88.2131,3.945,22.54,1111122 
DISL,ioos:station:DISL:KATA:1,2017-06-02T05:00:00Z,30.2583,-88.2131,3.929,22.34,1111122 
DISL,ioos:station:DISL:KATA:1,2017-06-02T05:30:00Z,30.2583,-88.2131,3.906,22.4,1111122 
DISL,ioos:station:DISL:KATA:1,2017-06-02T06:00:00Z,30.2583,-88.2131,3.886,22.26,1111122 
DISL,ioos:station:DISL:KATA:1,2017-06-02T06:30:00Z,30.2583,-88.2131,3.886,22.08,1111122 
DISL,ioos:station:DISL:KATA:1,2017-06-02T07:00:00Z,30.2583,-88.2131,3.892,21.92,1111122 
DISL,ioos:station:DISL:KATA:1,2017-06-02T07:30:00Z,30.2583,-88.2131,3.923,21.68,1111122 
DISL,ioos:station:DISL:KATA:1,2017-06-02T08:00:00Z,30.2583,-88.2131,3.948,21.85,1111122 
DISL,ioos:station:DISL:KATA:1,2017-06-02T08:30:00Z,30.2583,-88.2131,3.981,21.83,1111122 
DISL,ioos:station:DISL:KATA:1,2017-06-02T09:00:00Z,30.2583,-88.2131,4.006,21.91,1111122 
DISL,ioos:station:DISL:KATA:1,2017-06-02T10:00:00Z,30.2583,-88.2131,4.036,21.66,1111122 
DISL,ioos:station:DISL:KATA:1,2017-06-02T10:30:00Z,30.2583,-88.2131,4.05,21.55,1111122 
DISL,ioos:station:DISL:KATA:1,2017-06-02T11:00:00Z,30.2583,-88.2131,4.066,21.08,1111122 
DISL,ioos:station:DISL:KATA:1,2017-06-02T11:30:00Z,30.2583,-88.2131,4.079,20.96,1111122 
DISL,ioos:station:DISL:KATA:1,2017-06-02T12:00:00Z,30.2583,-88.2131,4.086,21.03,1111122 
DISL,ioos:station:DISL:KATA:1,2017-06-02T12:30:00Z,30.2583,-88.2131,4.087,21.03,1111122 
DISL,ioos:station:DISL:KATA:1,2017-06-02T13:00:00Z,30.2583,-88.2131,4.107,20.78,1111122 
DISL,ioos:station:DISL:KATA:1,2017-06-02T13:30:00Z,30.2583,-88.2131,4.109,21.13,1111122 
DISL,ioos:station:DISL:KATA:1,2017-06-02T14:00:00Z,30.2583,-88.2131,4.118,20.49,1111122 
DISL,ioos:station:DISL:KATA:1,2017-06-02T15:00:00Z,30.2583,-88.2131,4.123,20.17,1111122 
DISL,ioos:station:DISL:KATA:1,2017-06-02T16:30:00Z,30.2583,-88.2131,4.094,20.71,1111122 
DISL,ioos:station:DISL:KATA:1,2017-06-02T17:00:00Z,30.2583,-88.2131,4.084,20.89,1111122 
DISL,ioos:station:DISL:KATA:1,2017-06-02T17:30:00Z,30.2583,-88.2131,4.079,20.96,1111122 
DISL,ioos:station:DISL:KATA:1,2017-06-02T18:00:00Z,30.2583,-88.2131,4.071,20.82,1111122 
DISL,ioos:station:DISL:KATA:1,2017-06-02T18:30:00Z,30.2583,-88.2131,4.062,20.73,1111122 
DISL,ioos:station:DISL:KATA:1,2017-06-02T19:00:00Z,30.2583,-88.2131,4.065,20.94,1111122 
DISL,ioos:station:DISL:KATA:1,2017-06-02T19:30:00Z,30.2583,-88.2131,4.075,20.91,1111122 
DISL,ioos:station:DISL:KATA:1,2017-06-02T20:00:00Z,30.2583,-88.2131,4.072,20.9,1111122 
DISL,ioos:station:DISL:KATA:1,2017-06-02T20:30:00Z,30.2583,-88.2131,4.071,20.64,1111122 
DISL,ioos:station:DISL:KATA:1,2017-06-02T21:00:00Z,30.2583,-88.2131,4.075,20.55,1111122 
DISL,ioos:station:DISL:KATA:1,2017-06-02T21:30:00Z,30.2583,-88.2131,4.065,20.67,1111122 
DISL,ioos:station:DISL:KATA:1,2017-06-02T22:00:00Z,30.2583,-88.2131,4.075,21.28,1111122 
DISL,ioos:station:DISL:KATA:1,2017-06-02T22:30:00Z,30.2583,-88.2131,4.083,20.84,1111122 
DISL,ioos:station:DISL:KATA:1,2017-06-02T23:00:00Z,30.2583,-88.2131,4.079,20.94,1111122 
DISL,ioos:station:DISL:KATA:1,2017-06-02T23:30:00Z,30.2583,-88.2131,4.079,21.1,1111122 
DISL,ioos:station:DISL:KATA:1,2017-06-03T00:00:00Z,30.2583,-88.2131,4.051,21.39,1111122 
DISL,ioos:station:DISL:KATA:1,2017-06-03T00:30:00Z,30.2583,-88.2131,4.041,20.98,1111122 
DISL,ioos:station:DISL:KATA:1,2017-06-03T01:00:00Z,30.2583,-88.2131,4.052,20.92,1111122 
DISL,ioos:station:DISL:KATA:1,2017-06-03T01:30:00Z,30.2583,-88.2131,4.068,20.76,1111122 
DISL,ioos:station:DISL:KATA:1,2017-06-03T02:00:00Z,30.2583,-88.2131,4.059,21.33,1111122 
DISL,ioos:station:DISL:KATA:1,2017-06-03T02:30:00Z,30.2583,-88.2131,4.049,21.56,1111122 
DISL,ioos:station:DISL:KATA:1,2017-06-03T03:00:00Z,30.2583,-88.2131,4.049,21.45,1111122 
DISL,ioos:station:DISL:KATA:1,2017-06-03T03:30:00Z,30.2583,-88.2131,4.036,21.16,1111122 
DISL,ioos:station:DISL:KATA:1,2017-06-03T04:00:00Z,30.2583,-88.2131,4.02,21.21,1111122 
DISL,ioos:station:DISL:KATA:1,2017-06-03T04:30:00Z,30.2583,-88.2131,4.007,20.68,1111122 
DISL,ioos:station:DISL:KATA:1,2017-06-03T05:00:00Z,30.2583,-88.2131,3.991,20.8,1111122 
DISL,ioos:station:DISL:KATA:1,2017-06-03T05:30:00Z,30.2583,-88.2131,3.981,20.76,1111122 
DISL,ioos:station:DISL:KATA:1,2017-06-03T06:00:00Z,30.2583,-88.2131,3.965,20.74,1111122 
DISL,ioos:station:DISL:KATA:1,2017-06-03T06:30:00Z,30.2583,-88.2131,3.981,20.82,1111122 
DISL,ioos:station:DISL:KATA:1,2017-06-03T07:00:00Z,30.2583,-88.2131,3.992,20.53,1111122 
DISL,ioos:station:DISL:KATA:1,2017-06-03T07:30:00Z,30.2583,-88.2131,4.008,21.41,1111122 
DISL,ioos:station:DISL:KATA:1,2017-06-03T08:00:00Z,30.2583,-88.2131,4.032,21.63,1111122 
DISL,ioos:station:DISL:KATA:1,2017-06-03T08:30:00Z,30.2583,-88.2131,4.051,21.37,1111122 
DISL,ioos:station:DISL:KATA:1,2017-06-03T09:00:00Z,30.2583,-88.2131,4.08,21.46,1111122 
DISL,ioos:station:DISL:KATA:1,2017-06-03T09:30:00Z,30.2583,-88.2131,4.101,21.29,1111122 
DISL,ioos:station:DISL:KATA:1,2017-06-03T10:00:00Z,30.2583,-88.2131,4.111,20.58,1111122 
DISL,ioos:station:DISL:KATA:1,2017-06-03T10:30:00Z,30.2583,-88.2131,4.116,20.52,1111122 
DISL,ioos:station:DISL:KATA:1,2017-06-03T11:00:00Z,30.2583,-88.2131,4.116,20.92,1111122 
DISL,ioos:station:DISL:KATA:1,2017-06-03T11:30:00Z,30.2583,-88.2131,4.114,20.53,1111122 
DISL,ioos:station:DISL:KATA:1,2017-06-03T12:00:00Z,30.2583,-88.2131,4.109,19.82,1111122 
DISL,ioos:station:DISL:KATA:1,2017-06-03T12:30:00Z,30.2583,-88.2131,4.116,20.7,1111122 
DISL,ioos:station:DISL:KATA:1,2017-06-03T13:00:00Z,30.2583,-88.2131,4.135,20.32,1111122 
DISL,ioos:station:DISL:KATA:1,2017-06-03T13:30:00Z,30.2583,-88.2131,4.149,20.29,1111122 
DISL,ioos:station:DISL:KATA:1,2017-06-03T14:00:00Z,30.2583,-88.2131,4.173,20.3,1111122 
DISL,ioos:station:DISL:KATA:1,2017-06-03T14:30:00Z,30.2583,-88.2131,4.178,20.51,1111122 
DISL,ioos:station:DISL:KATA:1,2017-06-03T15:00:00Z,30.2583,-88.2131,4.186,19.96,1111122 
DISL,ioos:station:DISL:KATA:1,2017-06-03T15:30:00Z,30.2583,-88.2131,4.174,20.11,1111122 
DISL,ioos:station:DISL:KATA:1,2017-06-03T16:00:00Z,30.2583,-88.2131,4.143,20.32,1111122 
DISL,ioos:station:DISL:KATA:1,2017-06-03T16:30:00Z,30.2583,-88.2131,4.105,20.55,1111122 
DISL,ioos:station:DISL:KATA:1,2017-06-03T17:00:00Z,30.2583,-88.2131,4.071,20.43,1111122 
DISL,ioos:station:DISL:KATA:1,2017-06-03T17:30:00Z,30.2583,-88.2131,4.039,20.78,1111122 
DISL,ioos:station:DISL:KATA:1,2017-06-03T18:00:00Z,30.2583,-88.2131,4.014,20.66,1111122 
DISL,ioos:station:DISL:KATA:1,2017-06-03T18:30:00Z,30.2583,-88.2131,4.001,20.24,1111122 
DISL,ioos:station:DISL:KATA:1,2017-06-03T19:00:00Z,30.2583,-88.2131,3.992,20.42,1111122 
DISL,ioos:station:DISL:KATA:1,2017-06-03T19:30:00Z,30.2583,-88.2131,3.977,20.52,1111122 
DISL,ioos:station:DISL:KATA:1,2017-06-03T20:00:00Z,30.2583,-88.2131,3.978,20.47,1111122 
DISL,ioos:station:DISL:KATA:1,2017-06-03T20:30:00Z,30.2583,-88.2131,3.976,20.49,1111122 
DISL,ioos:station:DISL:KATA:1,2017-06-03T21:00:00Z,30.2583,-88.2131,3.972,20.55,1111122 
DISL,ioos:station:DISL:KATA:1,2017-06-03T21:30:00Z,30.2583,-88.2131,3.979,20.75,1111122 
DISL,ioos:station:DISL:KATA:1,2017-06-03T22:00:00Z,30.2583,-88.2131,3.986,20.76,1111122 
DISL,ioos:station:DISL:KATA:1,2017-06-03T22:30:00Z,30.2583,-88.2131,4.002,20.83,1111122 
DISL,ioos:station:DISL:KATA:1,2017-06-03T23:00:00Z,30.2583,-88.2131,4.008,20.63,1111122 
DISL,ioos:station:DISL:KATA:1,2017-06-03T23:30:00Z,30.2583,-88.2131,4.029,20.36,1111122 
DISL,ioos:station:DISL:KATA:1,2017-06-04T00:00:00Z,30.2583,-88.2131,4.004,20.38,1111122 
DISL,ioos:station:DISL:KATA:1,2017-06-04T00:30:00Z,30.2583,-88.2131,3.947,20.83,1111122 
DISL,ioos:station:DISL:KATA:1,2017-06-04T01:00:00Z,30.2583,-88.2131,3.875,21.55,1111122 
DISL,ioos:station:DISL:KATA:1,2017-06-04T01:30:00Z,30.2583,-88.2131,3.826,21.38,1111122 
DISL,ioos:station:DISL:KATA:1,2017-06-04T02:00:00Z,30.2583,-88.2131,3.837,21.41,1111122 
DISL,ioos:station:DISL:KATA:1,2017-06-04T02:30:00Z,30.2583,-88.2131,3.863,20.82,1111122 
DISL,ioos:station:DISL:KATA:1,2017-06-04T03:00:00Z,30.2583,-88.2131,3.903,20.24,1111122 
DISL,ioos:station:DISL:KATA:1,2017-06-04T03:30:00Z,30.2583,-88.2131,3.927,20.18,1111122 
DISL,ioos:station:DISL:KATA:1,2017-06-04T04:00:00Z,30.2583,-88.2131,3.967,20.4,1111122 
DISL,ioos:station:DISL:KATA:1,2017-06-04T04:30:00Z,30.2583,-88.2131,4.0,19.75,1111122 
DISL,ioos:station:DISL:KATA:1,2017-06-04T05:00:00Z,30.2583,-88.2131,4.002,20.14,1111122 
DISL,ioos:station:DISL:KATA:1,2017-06-04T05:30:00Z,30.2583,-88.2131,4.003,19.8,1111122 
DISL,ioos:station:DISL:KATA:1,2017-06-04T06:00:00Z,30.2583,-88.2131,4.012,19.62,1111122 
DISL,ioos:station:DISL:KATA:1,2017-06-04T06:30:00Z,30.2583,-88.2131,4.019,20.4,1111122 
DISL,ioos:station:DISL:KATA:1,2017-06-04T07:00:00Z,30.2583,-88.2131,4.034,20.03,1111122 
DISL,ioos:station:DISL:KATA:1,2017-06-04T07:30:00Z,30.2583,-88.2131,4.059,20.35,1111122 
DISL,ioos:station:DISL:KATA:1,2017-06-04T08:00:00Z,30.2583,-88.2131,4.089,19.64,1111122 
DISL,ioos:station:DISL:KATA:1,2017-06-04T08:30:00Z,30.2583,-88.2131,4.1,21.31,1111122 
DISL,ioos:station:DISL:KATA:1,2017-06-04T09:00:00Z,30.2583,-88.2131,4.14,20.02,1111122 
DISL,ioos:station:DISL:KATA:1,2017-06-04T09:30:00Z,30.2583,-88.2131,4.173,19.33,1111122 
DISL,ioos:station:DISL:KATA:1,2017-06-04T10:00:00Z,30.2583,-88.2131,4.189,18.93,1111122 
DISL,ioos:station:DISL:KATA:1,2017-06-04T10:30:00Z,30.2583,-88.2131,4.195,18.99,1111122 
DISL,ioos:station:DISL:KATA:1,2017-06-04T11:00:00Z,30.2583,-88.2131,4.196,18.82,1111122 
DISL,ioos:station:DISL:KATA:1,2017-06-04T11:30:00Z,30.2583,-88.2131,4.185,18.86,1111122 
DISL,ioos:station:DISL:KATA:1,2017-06-04T12:00:00Z,30.2583,-88.2131,4.177,18.7,1111122 
DISL,ioos:station:DISL:KATA:1,2017-06-04T12:30:00Z,30.2583,-88.2131,4.173,18.7,1111122 
DISL,ioos:station:DISL:KATA:1,2017-06-04T13:00:00Z,30.2583,-88.2131,4.169,18.78,1111122 
DISL,ioos:station:DISL:KATA:1,2017-06-04T13:30:00Z,30.2583,-88.2131,4.171,19.42,1111122 
DISL,ioos:station:DISL:KATA:1,2017-06-04T14:00:00Z,30.2583,-88.2131,4.179,19.43,1111122 
DISL,ioos:station:DISL:KATA:1,2017-06-04T14:30:00Z,30.2583,-88.2131,4.186,19.78,1111122 
DISL,ioos:station:DISL:KATA:1,2017-06-04T15:00:00Z,30.2583,-88.2131,4.192,19.8,1111122 
DISL,ioos:station:DISL:KATA:1,2017-06-04T15:30:00Z,30.2583,-88.2131,4.195,19.74,1111122 
DISL,ioos:station:DISL:KATA:1,2017-06-04T16:00:00Z,30.2583,-88.2131,4.198,19.19,1111122 
DISL,ioos:station:DISL:KATA:1,2017-06-04T16:30:00Z,30.2583,-88.2131,4.187,18.91,1111122 
DISL,ioos:station:DISL:KATA:1,2017-06-04T17:00:00Z,30.2583,-88.2131,4.162,18.91,1111122 
DISL,ioos:station:DISL:KATA:1,2017-06-04T17:30:00Z,30.2583,-88.2131,4.114,19.12,1111122 
DISL,ioos:station:DISL:KATA:1,2017-06-04T18:00:00Z,30.2583,-88.2131,4.08,19.37,1111122 
DISL,ioos:station:DISL:KATA:1,2017-06-04T18:30:00Z,30.2583,-88.2131,4.06,19.39,1111122 
DISL,ioos:station:DISL:KATA:1,2017-06-04T19:00:00Z,30.2583,-88.2131,4.038,19.41,1111122 
DISL,ioos:station:DISL:KATA:1,2017-06-04T19:30:00Z,30.2583,-88.2131,4.029,19.31,1111122 
DISL,ioos:station:DISL:KATA:1,2017-06-04T20:00:00Z,30.2583,-88.2131,4.009,19.34,1111122 
DISL,ioos:station:DISL:KATA:1,2017-06-04T20:30:00Z,30.2583,-88.2131,3.991,19.21,1111122 
DISL,ioos:station:DISL:KATA:1,2017-06-04T21:00:00Z,30.2583,-88.2131,3.987,19.23,1111122 
DISL,ioos:station:DISL:KATA:1,2017-06-04T21:30:00Z,30.2583,-88.2131,3.986,19.34,1111122 
DISL,ioos:station:DISL:KATA:1,2017-06-04T22:00:00Z,30.2583,-88.2131,3.989,19.6,1111122 
DISL,ioos:station:DISL:KATA:1,2017-06-04T22:30:00Z,30.2583,-88.2131,4.023,19.26,1111122 
DISL,ioos:station:DISL:KATA:1,2017-06-04T23:00:00Z,30.2583,-88.2131,4.037,19.62,1111122 
DISL,ioos:station:DISL:KATA:1,2017-06-04T23:30:00Z,30.2583,-88.2131,4.038,19.48,1111122 
DISL,ioos:station:DISL:KATA:1,2017-06-05T00:00:00Z,30.2583,-88.2131,4.042,19.62,1111122 
DISL,ioos:station:DISL:KATA:1,2017-06-05T00:30:00Z,30.2583,-88.2131,4.033,19.6,1111122 
DISL,ioos:station:DISL:KATA:1,2017-06-05T01:00:00Z,30.2583,-88.2131,4.011,19.84,1111122 
DISL,ioos:station:DISL:KATA:1,2017-06-05T01:30:00Z,30.2583,-88.2131,4.002,19.49,1111122 
DISL,ioos:station:DISL:KATA:1,2017-06-05T02:00:00Z,30.2583,-88.2131,3.982,19.66,1111122 
DISL,ioos:station:DISL:KATA:1,2017-06-05T02:30:00Z,30.2583,-88.2131,3.984,19.53,1111122 
DISL,ioos:station:DISL:KATA:1,2017-06-05T03:00:00Z,30.2583,-88.2131,4.009,19.52,1111122 
DISL,ioos:station:DISL:KATA:1,2017-06-05T03:30:00Z,30.2583,-88.2131,4.051,19.36,1111122 
DISL,ioos:station:DISL:KATA:1,2017-06-05T04:00:00Z,30.2583,-88.2131,4.083,19.55,1111122 
DISL,ioos:station:DISL:KATA:1,2017-06-05T04:30:00Z,30.2583,-88.2131,4.099,19.49,1111122 
DISL,ioos:station:DISL:KATA:1,2017-06-05T05:00:00Z,30.2583,-88.2131,4.123,19.42,1111122 
DISL,ioos:station:DISL:KATA:1,2017-06-05T05:30:00Z,30.2583,-88.2131,4.132,19.52,1111122 
DISL,ioos:station:DISL:KATA:1,2017-06-05T06:00:00Z,30.2583,-88.2131,4.128,19.12,1111122 
DISL,ioos:station:DISL:KATA:1,2017-06-05T06:30:00Z,30.2583,-88.2131,4.145,19.3,1111122 
DISL,ioos:station:DISL:KATA:1,2017-06-05T07:00:00Z,30.2583,-88.2131,4.147,19.2,1111122 
DISL,ioos:station:DISL:KATA:1,2017-06-05T07:30:00Z,30.2583,-88.2131,4.161,19.08,1111122 
DISL,ioos:station:DISL:KATA:1,2017-06-05T08:00:00Z,30.2583,-88.2131,4.186,18.58,1111122 
DISL,ioos:station:DISL:KATA:1,2017-06-05T08:30:00Z,30.2583,-88.2131,4.204,19.61,1111122 
DISL,ioos:station:DISL:KATA:1,2017-06-05T09:00:00Z,30.2583,-88.2131,4.229,18.53,1111122 
DISL,ioos:station:DISL:KATA:1,2017-06-05T09:30:00Z,30.2583,-88.2131,4.269,18.31,1111122 
DISL,ioos:station:DISL:KATA:1,2017-06-05T10:00:00Z,30.2583,-88.2131,4.297,18.8,1111122 
DISL,ioos:station:DISL:KATA:1,2017-06-05T10:30:00Z,30.2583,-88.2131,4.302,18.8,1111122 
DISL,ioos:station:DISL:KATA:1,2017-06-05T11:00:00Z,30.2583,-88.2131,4.297,18.44,1111122 
DISL,ioos:station:DISL:KATA:1,2017-06-05T11:30:00Z,30.2583,-88.2131,4.306,18.38,1111122 
DISL,ioos:station:DISL:KATA:1,2017-06-05T12:00:00Z,30.2583,-88.2131,4.295,18.59,1111122 
DISL,ioos:station:DISL:KATA:1,2017-06-05T12:30:00Z,30.2583,-88.2131,4.277,18.96,1111122 
DISL,ioos:station:DISL:KATA:1,2017-06-05T13:00:00Z,30.2583,-88.2131,4.253,18.84,1111122 
DISL,ioos:station:DISL:KATA:1,2017-06-05T13:30:00Z,30.2583,-88.2131,4.24,19.08,1111122 
DISL,ioos:station:DISL:KATA:1,2017-06-05T14:00:00Z,30.2583,-88.2131,4.248,18.84,1111122 
DISL,ioos:station:DISL:KATA:1,2017-06-05T14:30:00Z,30.2583,-88.2131,4.25,18.87,1111122 
DISL,ioos:station:DISL:KATA:1,2017-06-05T15:00:00Z,30.2583,-88.2131,4.25,18.92,1111122 
DISL,ioos:station:DISL:KATA:1,2017-06-05T15:30:00Z,30.2583,-88.2131,4.266,18.86,1111122 
DISL,ioos:station:DISL:KATA:1,2017-06-05T16:00:00Z,30.2583,-88.2131,4.272,18.68,1111122 
DISL,ioos:station:DISL:KATA:1,2017-06-05T16:30:00Z,30.2583,-88.2131,4.269,18.78,1111122 
DISL,ioos:station:DISL:KATA:1,2017-06-05T17:00:00Z,30.2583,-88.2131,4.246,19.17,1111122 
DISL,ioos:station:DISL:KATA:1,2017-06-05T17:30:00Z,30.2583,-88.2131,4.205,19.1,1111122 
DISL,ioos:station:DISL:KATA:1,2017-06-05T18:00:00Z,30.2583,-88.2131,4.156,19.06,1111122 
DISL,ioos:station:DISL:KATA:1,2017-06-05T18:30:00Z,30.2583,-88.2131,4.123,18.74,1111122 
DISL,ioos:station:DISL:KATA:1,2017-06-05T19:00:00Z,30.2583,-88.2131,4.084,18.69,1111122 
DISL,ioos:station:DISL:KATA:1,2017-06-05T19:30:00Z,30.2583,-88.2131,4.07,18.79,1111122 
DISL,ioos:station:DISL:KATA:1,2017-06-05T20:00:00Z,30.2583,-88.2131,4.045,18.81,1111122 
DISL,ioos:station:DISL:KATA:1,2017-06-05T20:30:00Z,30.2583,-88.2131,4.018,18.36,1111122 
DISL,ioos:station:DISL:KATA:1,2017-06-05T21:00:00Z,30.2583,-88.2131,4.003,18.56,1111122 
DISL,ioos:station:DISL:KATA:1,2017-06-05T21:30:00Z,30.2583,-88.2131,4.005,18.83,1111122 
DISL,ioos:station:DISL:KATA:1,2017-06-05T22:00:00Z,30.2583,-88.2131,4.012,18.73,1111122 
DISL,ioos:station:DISL:KATA:1,2017-06-05T22:30:00Z,30.2583,-88.2131,4.019,18.87,1111122 
DISL,ioos:station:DISL:KATA:1,2017-06-05T23:00:00Z,30.2583,-88.2131,4.038,18.67,1111122 
DISL,ioos:station:DISL:KATA:1,2017-06-05T23:30:00Z,30.2583,-88.2131,4.051,18.61,1111122 
DISL,ioos:station:DISL:KATA:1,2017-06-06T00:00:00Z,30.2583,-88.2131,4.049,18.68,1111122 
DISL,ioos:station:DISL:KATA:1,2017-06-06T00:30:00Z,30.2583,-88.2131,4.039,18.19,1111122 
DISL,ioos:station:DISL:KATA:1,2017-06-06T01:00:00Z,30.2583,-88.2131,4.033,17.8,1111122 
DISL,ioos:station:DISL:KATA:1,2017-06-06T01:30:00Z,30.2583,-88.2131,4.021,18.27,1111122 
DISL,ioos:station:DISL:KATA:1,2017-06-06T02:00:00Z,30.2583,-88.2131,4.012,18.27,1111122 
DISL,ioos:station:DISL:KATA:1,2017-06-06T02:30:00Z,30.2583,-88.2131,4.016,18.77,1111122 
DISL,ioos:station:DISL:KATA:1,2017-06-06T03:00:00Z,30.2583,-88.2131,4.029,18.76,1111122 
DISL,ioos:station:DISL:KATA:1,2017-06-06T03:30:00Z,30.2583,-88.2131,4.039,18.39,1111122 
DISL,ioos:station:DISL:KATA:1,2017-06-06T04:00:00Z,30.2583,-88.2131,4.076,18.45,1111122 
DISL,ioos:station:DISL:KATA:1,2017-06-06T04:30:00Z,30.2583,-88.2131,4.1,18.59,1111122 
DISL,ioos:station:DISL:KATA:1,2017-06-06T05:00:00Z,30.2583,-88.2131,4.123,18.48,1111122 
DISL,ioos:station:DISL:KATA:1,2017-06-06T05:30:00Z,30.2583,-88.2131,4.156,18.74,1111122 
DISL,ioos:station:DISL:KATA:1,2017-06-06T06:00:00Z,30.2583,-88.2131,4.178,18.6,1111122 
DISL,ioos:station:DISL:KATA:1,2017-06-06T06:30:00Z,30.2583,-88.2131,4.181,18.28,1111122 
DISL,ioos:station:DISL:KATA:1,2017-06-06T07:00:00Z,30.2583,-88.2131,4.188,18.74,1111122 
DISL,ioos:station:DISL:KATA:1,2017-06-06T07:30:00Z,30.2583,-88.2131,4.213,19.17,1111122 
DISL,ioos:station:DISL:KATA:1,2017-06-06T08:00:00Z,30.2583,-88.2131,4.246,17.9,1111122 
DISL,ioos:station:DISL:KATA:1,2017-06-06T08:30:00Z,30.2583,-88.2131,4.244,18.15,1111122 
DISL,ioos:station:DISL:KATA:1,2017-06-06T09:00:00Z,30.2583,-88.2131,4.246,18.52,1111122 
DISL,ioos:station:DISL:KATA:1,2017-06-06T09:30:00Z,30.2583,-88.2131,4.261,18.42,1111122 
DISL,ioos:station:DISL:KATA:1,2017-06-06T10:00:00Z,30.2583,-88.2131,4.291,18.54,1111122 
DISL,ioos:station:DISL:KATA:1,2017-06-06T10:30:00Z,30.2583,-88.2131,4.324,18.15,1111122 
DISL,ioos:station:DISL:KATA:1,2017-06-06T11:00:00Z,30.2583,-88.2131,4.36,18.11,1111122 
DISL,ioos:station:DISL:KATA:1,2017-06-06T11:30:00Z,30.2583,-88.2131,4.361,17.8,1111122 
DISL,ioos:station:DISL:KATA:1,2017-06-06T12:00:00Z,30.2583,-88.2131,4.388,18.63,1111122 
DISL,ioos:station:DISL:KATA:1,2017-06-06T12:30:00Z,30.2583,-88.2131,4.437,18.52,1111122 
DISL,ioos:station:DISL:KATA:1,2017-06-06T13:00:00Z,30.2583,-88.2131,4.419,18.64,1111122 
DISL,ioos:station:DISL:KATA:1,2017-06-06T13:30:00Z,30.2583,-88.2131,4.409,18.62,1111122 
DISL,ioos:station:DISL:KATA:1,2017-06-06T14:00:00Z,30.2583,-88.2131,4.416,18.71,1111122 
DISL,ioos:station:DISL:KATA:1,2017-06-06T14:30:00Z,30.2583,-88.2131,4.391,19.03,1111122 
DISL,ioos:station:DISL:KATA:1,2017-06-06T15:00:00Z,30.2583,-88.2131,4.363,19.69,1111122 
DISL,ioos:station:DISL:KATA:1,2017-06-06T15:30:00Z,30.2583,-88.2131,4.354,19.66,1111122 
DISL,ioos:station:DISL:KATA:1,2017-06-06T16:00:00Z,30.2583,-88.2131,4.354,19.87,1111122 